MJONE EHAM-EGNH

Flight info

Callsign MJONE
Flight time 0h 55m
Altitude 32000
Route BERGI L602 NALAX L46 LIBSO UL975 GOLES Y70 POL
Aircraft PC24/M-SBDGIRWY/LB2

Departure

Time 2026-05-06 15:54
Airport Amsterdam Airport Schiphol (EHAM)

Arrival

Time 2026-05-06 16:50
Airport Blackpool Airport (EGNH)
Time Latitude Longitude Altitude Speed Heading
2026-05-06 15:37 52.31188 4.80554 -5 ft 0 kts 310°
2026-05-06 15:49 52.31194 4.80542 -5 ft 3 kts 299°
2026-05-06 15:50 52.31174 4.80491 -5 ft 13 kts 220°
2026-05-06 15:50 52.31092 4.80375 -5 ft 17 kts 221°
2026-05-06 15:50 52.31039 4.80275 -5 ft 9 kts 282°
2026-05-06 15:50 52.31059 4.80157 -5 ft 16 kts 238°
2026-05-06 15:51 52.30939 4.79982 -6 ft 30 kts 221°
2026-05-06 15:51 52.30783 4.79761 -6 ft 30 kts 222°
2026-05-06 15:51 52.30629 4.79541 -5 ft 29 kts 221°
2026-05-06 15:51 52.30475 4.79319 -6 ft 30 kts 221°
2026-05-06 15:52 52.30316 4.79093 -6 ft 30 kts 221°
2026-05-06 15:52 52.30155 4.78864 -6 ft 30 kts 221°
2026-05-06 15:52 52.30038 4.78655 -6 ft 21 kts 270°
2026-05-06 15:52 52.30064 4.78581 -6 ft 0 kts 307°
2026-05-06 15:53 52.30079 4.78551 -6 ft 14 kts 308°
2026-05-06 15:53 52.30125 4.78474 -8 ft 0 kts 37°
2026-05-06 15:54 52.30358 4.78806 -9 ft 91 kts 41°
2026-05-06 15:54 52.31010 4.79729 201 ft 144 kts 41°
2026-05-06 15:54 52.31793 4.80830 1134 ft 154 kts 39°
2026-05-06 15:54 52.32598 4.81997 2294 ft 156 kts 42°
2026-05-06 15:55 52.33480 4.83120 3427 ft 169 kts 31°
2026-05-06 15:55 52.34670 4.83787 4588 ft 193 kts 13°
2026-05-06 15:55 52.36071 4.83922 5734 ft 214 kts
2026-05-06 15:55 52.37633 4.84045 6846 ft 236 kts
2026-05-06 15:56 52.39369 4.84189 7796 ft 260 kts
2026-05-06 15:56 52.41230 4.84338 8834 ft 270 kts
2026-05-06 15:56 52.43118 4.84489 9890 ft 274 kts
2026-05-06 15:56 52.45055 4.84644 10859 ft 282 kts
2026-05-06 15:57 52.47047 4.84807 11654 ft 296 kts
2026-05-06 15:57 52.49154 4.84973 12488 ft 308 kts
2026-05-06 15:57 52.51341 4.84627 13117 ft 321 kts 346°
2026-05-06 15:57 52.53457 4.83396 13779 ft 323 kts 331°
2026-05-06 15:58 52.55336 4.81383 14548 ft 324 kts 319°
2026-05-06 15:58 52.56866 4.78702 15337 ft 325 kts 305°
2026-05-06 15:58 52.58160 4.75633 16152 ft 329 kts 303°
2026-05-06 15:58 52.59487 4.72518 16993 ft 331 kts 303°
2026-05-06 15:59 52.60796 4.69436 17842 ft 335 kts 302°
2026-05-06 15:59 52.62131 4.66258 18650 ft 339 kts 302°
2026-05-06 15:59 52.63483 4.63054 19425 ft 342 kts 302°
2026-05-06 15:59 52.64844 4.59825 20216 ft 344 kts 302°
2026-05-06 16:00 52.66210 4.56584 20987 ft 346 kts 302°
2026-05-06 16:00 52.67588 4.53301 21689 ft 350 kts 302°
2026-05-06 16:00 52.68984 4.49977 22422 ft 353 kts 301°
2026-05-06 16:00 52.70366 4.46682 23152 ft 354 kts 301°
2026-05-06 16:01 52.71774 4.43323 23839 ft 355 kts 301°
2026-05-06 16:01 52.73180 4.39957 24482 ft 355 kts 301°
2026-05-06 16:01 52.74573 4.36620 25011 ft 358 kts 301°
2026-05-06 16:01 52.75840 4.33070 25544 ft 358 kts 295°
2026-05-06 16:02 52.77058 4.29451 26105 ft 360 kts 296°
2026-05-06 16:02 52.78295 4.25840 26669 ft 361 kts 296°
2026-05-06 16:02 52.79514 4.22263 27241 ft 362 kts 296°
2026-05-06 16:02 52.80745 4.18620 27826 ft 362 kts 296°
2026-05-06 16:03 52.81981 4.14960 28358 ft 363 kts 296°
2026-05-06 16:03 52.83200 4.11349 28845 ft 365 kts 296°
2026-05-06 16:03 52.84444 4.07662 29352 ft 366 kts 296°
2026-05-06 16:03 52.85686 4.03977 29867 ft 367 kts 296°
2026-05-06 16:04 52.86940 4.00244 30199 ft 371 kts 295°
2026-05-06 16:04 52.88183 3.96538 30494 ft 374 kts 296°
2026-05-06 16:04 52.89453 3.92753 30795 ft 377 kts 296°
2026-05-06 16:04 52.90729 3.88943 31108 ft 379 kts 296°
2026-05-06 16:05 52.92011 3.85104 31417 ft 380 kts 296°
2026-05-06 16:05 52.93295 3.81257 31737 ft 381 kts 296°
2026-05-06 16:05 52.94567 3.77436 31966 ft 384 kts 296°
2026-05-06 16:05 52.95873 3.73508 31961 ft 393 kts 296°
2026-05-06 16:06 52.98553 3.65432 31962 ft 405 kts 296°
2026-05-06 16:06 53.01283 3.57194 31964 ft 405 kts 296°
2026-05-06 16:07 53.03971 3.49034 31956 ft 400 kts 296°
2026-05-06 16:07 53.06624 3.40948 31957 ft 401 kts 296°
2026-05-06 16:08 53.09305 3.32755 31961 ft 402 kts 296°
2026-05-06 16:08 53.10341 3.28526 31951 ft 397 kts 282°
2026-05-06 16:08 53.10942 3.24033 31969 ft 398 kts 280°
2026-05-06 16:09 53.12135 3.15010 31974 ft 397 kts 280°
2026-05-06 16:09 53.13320 3.06073 31972 ft 396 kts 280°
2026-05-06 16:10 53.14497 2.97112 31979 ft 398 kts 281°
2026-05-06 16:10 53.15678 2.88073 31982 ft 399 kts 280°
2026-05-06 16:11 53.16851 2.79034 31984 ft 398 kts 280°
2026-05-06 16:11 53.18011 2.70042 31985 ft 399 kts 280°
2026-05-06 16:12 53.19173 2.60974 31989 ft 398 kts 280°
2026-05-06 16:12 53.20315 2.52000 31989 ft 397 kts 280°
2026-05-06 16:13 53.21459 2.42962 31991 ft 397 kts 280°
2026-05-06 16:13 53.22585 2.33996 31990 ft 396 kts 280°
2026-05-06 16:14 53.23710 2.24987 31998 ft 396 kts 280°
2026-05-06 16:14 53.24827 2.15980 31999 ft 395 kts 280°
2026-05-06 16:15 53.25929 2.07036 31998 ft 394 kts 279°
2026-05-06 16:15 53.27029 1.98050 32007 ft 393 kts 279°
2026-05-06 16:16 53.28109 1.89165 32004 ft 390 kts 279°
2026-05-06 16:16 53.29179 1.80308 32004 ft 391 kts 279°
2026-05-06 16:17 53.30255 1.71339 32006 ft 393 kts 279°
2026-05-06 16:17 53.31325 1.62362 32011 ft 393 kts 279°
2026-05-06 16:18 53.32384 1.53414 32015 ft 394 kts 279°
2026-05-06 16:18 53.33628 1.44481 32007 ft 393 kts 282°
2026-05-06 16:19 53.34914 1.35654 32008 ft 391 kts 281°
2026-05-06 16:19 53.36190 1.26811 32006 ft 392 kts 281°
2026-05-06 16:20 53.37476 1.17870 32018 ft 395 kts 281°
2026-05-06 16:20 53.38697 1.09327 32016 ft 392 kts 281°
2026-05-06 16:21 53.39862 1.01132 32020 ft 390 kts 281°
2026-05-06 16:21 53.41113 0.92280 32019 ft 388 kts 281°
2026-05-06 16:22 53.42348 0.83485 32019 ft 389 kts 281°
2026-05-06 16:22 53.43586 0.74629 32030 ft 390 kts 281°
2026-05-06 16:23 53.44813 0.65790 32036 ft 391 kts 281°
2026-05-06 16:23 53.45941 0.57623 32042 ft 391 kts 281°
2026-05-06 16:24 53.46800 0.51376 32049 ft 391 kts 281°
2026-05-06 16:24 53.48015 0.42489 32038 ft 388 kts 281°
2026-05-06 16:25 53.49205 0.33737 32039 ft 387 kts 281°
2026-05-06 16:25 53.50400 0.24889 32042 ft 388 kts 281°
2026-05-06 16:26 53.51593 0.16003 32050 ft 389 kts 281°
2026-05-06 16:26 53.52663 0.07128 32045 ft 388 kts 275°
2026-05-06 16:27 53.53321 -0.01890 32050 ft 389 kts 276°
2026-05-06 16:27 53.54004 -0.10918 32053 ft 392 kts 276°
2026-05-06 16:28 53.54670 -0.20018 32054 ft 393 kts 276°
2026-05-06 16:28 53.55005 -0.24585 31832 ft 396 kts 276°
2026-05-06 16:28 53.55340 -0.29186 31318 ft 395 kts 276°
2026-05-06 16:29 53.55670 -0.33750 30800 ft 391 kts 276°
2026-05-06 16:29 53.55996 -0.38284 30286 ft 389 kts 276°
2026-05-06 16:29 53.56320 -0.42814 29739 ft 389 kts 276°
2026-05-06 16:29 53.56641 -0.47345 29220 ft 390 kts 276°
2026-05-06 16:30 53.56960 -0.51842 28709 ft 394 kts 276°
2026-05-06 16:30 53.57178 -0.54946 28356 ft 396 kts 276°
2026-05-06 16:30 53.57607 -0.61064 27661 ft 399 kts 276°
2026-05-06 16:30 53.57930 -0.65711 27133 ft 398 kts 276°
2026-05-06 16:31 53.58249 -0.70320 26610 ft 395 kts 276°
2026-05-06 16:31 53.58564 -0.74903 26088 ft 392 kts 276°
2026-05-06 16:31 53.58875 -0.79449 25579 ft 389 kts 276°
2026-05-06 16:31 53.59179 -0.83913 25098 ft 387 kts 276°
2026-05-06 16:32 53.59480 -0.88393 24829 ft 381 kts 276°
2026-05-06 16:32 53.59782 -0.92855 24610 ft 382 kts 276°
2026-05-06 16:32 53.60079 -0.97315 24395 ft 383 kts 276°
2026-05-06 16:32 53.60377 -1.01785 24183 ft 384 kts 276°
2026-05-06 16:33 53.60666 -1.06180 23977 ft 383 kts 276°
2026-05-06 16:33 53.61090 -1.10586 23729 ft 380 kts 283°
2026-05-06 16:33 53.61725 -1.14940 23212 ft 381 kts 283°
2026-05-06 16:34 53.62886 -1.23524 22214 ft 372 kts 283°
2026-05-06 16:34 53.63461 -1.27753 21725 ft 369 kts 283°
2026-05-06 16:34 53.64036 -1.31956 21239 ft 367 kts 283°
2026-05-06 16:34 53.64604 -1.36149 20755 ft 366 kts 283°
2026-05-06 16:35 53.65163 -1.40290 20278 ft 363 kts 283°
2026-05-06 16:35 53.65719 -1.44438 19800 ft 361 kts 283°
2026-05-06 16:35 53.66273 -1.48555 19323 ft 359 kts 283°
2026-05-06 16:35 53.66817 -1.52615 18855 ft 357 kts 283°
2026-05-06 16:36 53.67361 -1.56697 18382 ft 355 kts 283°
2026-05-06 16:36 53.67901 -1.60748 17882 ft 351 kts 283°
2026-05-06 16:36 53.68425 -1.64700 17418 ft 348 kts 283°
2026-05-06 16:36 53.68951 -1.68667 16970 ft 344 kts 283°
2026-05-06 16:37 53.69470 -1.72607 16516 ft 343 kts 283°
2026-05-06 16:37 53.69988 -1.76532 16064 ft 341 kts 283°
2026-05-06 16:37 53.70501 -1.80445 15606 ft 340 kts 283°
2026-05-06 16:37 53.71013 -1.84343 15165 ft 339 kts 283°
2026-05-06 16:38 53.71517 -1.88216 14705 ft 336 kts 283°
2026-05-06 16:38 53.72012 -1.92012 14264 ft 334 kts 283°
2026-05-06 16:38 53.72511 -1.95851 13826 ft 332 kts 283°
2026-05-06 16:38 53.73004 -1.99661 13359 ft 330 kts 283°
2026-05-06 16:39 53.73494 -2.03446 12924 ft 327 kts 283°
2026-05-06 16:39 53.73968 -2.07143 12496 ft 325 kts 283°
2026-05-06 16:39 53.74403 -2.10873 12057 ft 322 kts 277°
2026-05-06 16:39 53.74464 -2.14669 11641 ft 324 kts 271°
2026-05-06 16:40 53.74513 -2.17204 11357 ft 324 kts 273°
2026-05-06 16:40 53.74662 -2.22239 10791 ft 322 kts 273°
2026-05-06 16:40 53.74744 -2.26016 10366 ft 320 kts 272°
2026-05-06 16:40 53.74794 -2.28561 10079 ft 319 kts 272°
2026-05-06 16:41 53.74876 -2.32298 9632 ft 318 kts 272°
2026-05-06 16:41 53.74956 -2.35981 9212 ft 315 kts 272°
2026-05-06 16:41 53.75036 -2.39653 9075 ft 308 kts 272°
2026-05-06 16:41 53.75111 -2.43232 8631 ft 287 kts 272°
2026-05-06 16:42 53.75177 -2.46537 8218 ft 284 kts 272°
2026-05-06 16:42 53.75245 -2.49781 7800 ft 274 kts 272°
2026-05-06 16:42 53.75310 -2.52965 7294 ft 266 kts 272°
2026-05-06 16:42 53.75372 -2.56049 6950 ft 260 kts 272°
2026-05-06 16:43 53.75431 -2.59107 6611 ft 260 kts 272°
2026-05-06 16:43 53.75491 -2.62176 6256 ft 260 kts 272°
2026-05-06 16:43 53.75550 -2.65208 5903 ft 257 kts 272°
2026-05-06 16:43 53.75606 -2.68239 5566 ft 258 kts 271°
2026-05-06 16:44 53.75662 -2.71231 5234 ft 259 kts 271°
2026-05-06 16:44 53.75743 -2.74302 4729 ft 265 kts 275°
2026-05-06 16:44 53.75918 -2.77386 4357 ft 261 kts 275°
2026-05-06 16:44 53.76064 -2.80439 4146 ft 255 kts 274°
2026-05-06 16:45 53.76180 -2.83367 3955 ft 251 kts 273°
2026-05-06 16:45 53.76274 -2.86311 3711 ft 250 kts 272°
2026-05-06 16:45 53.76345 -2.89249 3402 ft 251 kts 273°
2026-05-06 16:45 53.76361 -2.92161 3099 ft 241 kts 264°
2026-05-06 16:46 53.76006 -2.94895 2736 ft 237 kts 250°
2026-05-06 16:46 53.75417 -2.97431 2357 ft 226 kts 248°
2026-05-06 16:46 53.74885 -2.99810 2125 ft 214 kts 249°
2026-05-06 16:46 53.74354 -3.02095 1997 ft 204 kts 251°
2026-05-06 16:47 53.74208 -3.04457 1686 ft 201 kts 274°
2026-05-06 16:47 53.74291 -3.06814 1314 ft 198 kts 273°
2026-05-06 16:47 53.74373 -3.08998 1198 ft 173 kts 278°
2026-05-06 16:47 53.74839 -3.10697 1097 ft 154 kts 317°
2026-05-06 16:48 53.75781 -3.11305 964 ft 147 kts
2026-05-06 16:48 53.76736 -3.10819 1028 ft 143 kts 33°
2026-05-06 16:48 53.77372 -3.09576 920 ft 136 kts 71°
2026-05-06 16:48 53.77401 -3.08038 606 ft 131 kts 93°
2026-05-06 16:49 53.77337 -3.06553 372 ft 122 kts 92°
2026-05-06 16:49 53.77272 -3.05165 193 ft 116 kts 95°
2026-05-06 16:49 53.77201 -3.03831 53 ft 108 kts 95°
2026-05-06 16:49 53.77152 -3.02779 43 ft 68 kts 95°
2026-05-06 16:50 53.77132 -3.02355 44 ft 13 kts 95°
2026-05-06 16:50 53.77132 -3.02291 44 ft 2 kts 185°
2026-05-06 16:50 53.77132 -3.02372 44 ft 16 kts 275°
2026-05-06 16:50 53.77143 -3.02614 43 ft 22 kts 274°
2026-05-06 16:51 53.77157 -3.02885 44 ft 24 kts 273°
2026-05-06 16:51 53.77173 -3.03193 45 ft 29 kts 272°
2026-05-06 16:51 53.77187 -3.03543 48 ft 30 kts 275°
2026-05-06 16:51 53.77229 -3.03882 47 ft 29 kts 304°
2026-05-06 16:52 53.77352 -3.04158 45 ft 29 kts 307°
2026-05-06 16:52 53.77450 -3.04353 45 ft 14 kts 352°
2026-05-06 16:52 53.77530 -3.04284 45 ft 13 kts 32°
2026-05-06 16:52 53.77545 -3.04268 45 ft 0 kts 31°
2026-05-06 16:54 53.77566 -3.04246 45 ft 14 kts 31°
2026-05-06 16:54 53.77657 -3.04188 45 ft 13 kts 330°
2026-05-06 16:54 53.77689 -3.04305 45 ft 9 kts 314°
2026-05-06 16:54 53.77711 -3.04313 45 ft 0 kts 351°
2026-05-06 17:04 53.77712 -3.04304 45 ft 4 kts 99°
2026-05-06 17:05 53.77674 -3.04225 45 ft 13 kts 114°
2026-05-06 17:05 53.77589 -3.04221 45 ft 15 kts 212°
2026-05-06 17:05 53.77559 -3.04252 45 ft 0 kts 213°
2026-05-06 17:06 53.77543 -3.04269 45 ft 16 kts 212°
2026-05-06 17:06 53.77430 -3.04383 45 ft 19 kts 206°
2026-05-06 17:06 53.77305 -3.04380 45 ft 18 kts 161°
2026-05-06 17:07 53.77224 -3.04263 43 ft 10 kts 95°
2026-05-06 17:07 53.77223 -3.04244 43 ft 0 kts 94°
2026-05-06 17:07 53.77200 -3.03768 47 ft 95 kts 95°
2026-05-06 17:07 53.77125 -3.02214 434 ft 156 kts 94°
2026-05-06 17:08 53.77030 -3.00150 1147 ft 204 kts 94°
2026-05-06 17:08 53.76375 -2.97722 1895 ft 250 kts 132°
2026-05-06 17:08 53.74853 -2.96363 2545 ft 259 kts 167°
2026-05-06 17:08 53.73024 -2.96623 2522 ft 264 kts 200°
2026-05-06 17:09 53.71456 -2.98106 2524 ft 260 kts 212°
2026-05-06 17:09 53.69948 -2.99802 2528 ft 260 kts 213°
2026-05-06 17:09 53.68467 -3.01505 2523 ft 259 kts 213°
2026-05-06 17:09 53.66974 -3.03225 2510 ft 259 kts 213°
2026-05-06 17:10 53.65482 -3.04947 2516 ft 259 kts 213°
2026-05-06 17:10 53.64012 -3.06648 2516 ft 259 kts 213°
2026-05-06 17:10 53.62516 -3.08371 2515 ft 260 kts 214°
2026-05-06 17:10 53.61000 -3.10007 2504 ft 257 kts 204°
2026-05-06 17:11 53.59275 -3.10817 2506 ft 257 kts 190°
2026-05-06 17:11 53.57538 -3.11351 2515 ft 254 kts 188°
2026-05-06 17:11 53.55812 -3.11867 2505 ft 251 kts 188°
2026-05-06 17:11 53.54092 -3.12384 2502 ft 251 kts 189°
2026-05-06 17:12 53.52368 -3.12893 2502 ft 254 kts 188°
2026-05-06 17:12 53.50627 -3.13403 2506 ft 253 kts 189°
2026-05-06 17:12 53.48879 -3.13903 2506 ft 254 kts 188°
2026-05-06 17:12 53.47156 -3.14391 2505 ft 253 kts 188°
2026-05-06 17:13 53.45422 -3.14900 2507 ft 252 kts 188°
2026-05-06 17:13 53.43675 -3.15006 2507 ft 251 kts 176°
2026-05-06 17:13 53.41925 -3.14828 2511 ft 251 kts 175°
2026-05-06 17:13 53.40187 -3.14619 2511 ft 249 kts 174°
2026-05-06 17:14 53.38512 -3.14408 2502 ft 233 kts 175°
2026-05-06 17:14 53.36981 -3.14211 2499 ft 212 kts 174°
2026-05-06 17:14 53.35554 -3.14046 2499 ft 200 kts 175°
2026-05-06 17:14 53.34189 -3.13786 2500 ft 197 kts 165°
2026-05-06 17:15 53.32912 -3.12910 2500 ft 199 kts 146°
2026-05-06 17:15 53.32177 -3.11013 2494 ft 196 kts 100°
2026-05-06 17:15 53.32255 -3.08847 2522 ft 184 kts 86°
2026-05-06 17:15 53.32345 -3.06748 2490 ft 181 kts 86°
2026-05-06 17:16 53.32454 -3.04581 2257 ft 190 kts 85°
2026-05-06 17:16 53.32557 -3.02402 2003 ft 189 kts 85°
2026-05-06 17:16 53.32657 -3.00226 1742 ft 183 kts 86°
2026-05-06 17:16 53.32750 -2.98202 1493 ft 166 kts 85°
2026-05-06 17:17 53.32837 -2.96340 1268 ft 154 kts 86°
2026-05-06 17:17 53.32915 -2.94636 1078 ft 139 kts 86°
2026-05-06 17:17 53.32983 -2.93159 881 ft 123 kts 85°
2026-05-06 17:17 53.33048 -2.91751 712 ft 119 kts 84°
2026-05-06 17:18 53.33110 -2.90384 550 ft 116 kts 85°
2026-05-06 17:18 53.33175 -2.89056 395 ft 113 kts 84°
2026-05-06 17:18 53.33245 -2.87732 255 ft 114 kts 85°
2026-05-06 17:18 53.33299 -2.86419 96 ft 111 kts 85°
2026-05-06 17:19 53.33349 -2.85300 76 ft 77 kts 85°
2026-05-06 17:19 53.33377 -2.84752 72 ft 34 kts 81°
2026-05-06 17:19 53.33455 -2.84427 71 ft 22 kts 59°
2026-05-06 17:19 53.33522 -2.84241 69 ft 17 kts 59°
2026-05-06 17:20 53.33571 -2.84063 67 ft 18 kts 86°
2026-05-06 17:20 53.33591 -2.83922 65 ft 7 kts 12°
2026-05-06 17:20 53.33646 -2.83928 64 ft 9 kts 355°
2026-05-06 17:20 53.33708 -2.83936 66 ft 6 kts 356°
2026-05-06 17:21 53.33719 -2.83930 62 ft 1 kts 51°
2026-05-06 17:21 53.33720 -2.83912 64 ft 1 kts 85°
2026-05-06 17:21 53.33720 -2.83906 66 ft 0 kts 86°
2026-05-06 17:21 53.33720 -2.83905 66 ft 0 kts 86°
2026-05-06 17:27 53.33759 -2.83979 66 ft 0 kts 115°
2026-05-06 17:27 53.33765 -2.83984 66 ft 0 kts 160°
2026-05-06 17:27 53.33763 -2.83985 66 ft 0 kts 130°
2026-05-06 17:28 53.33763 -2.83983 66 ft 0 kts 147°